Back to catalog

STARLINK-35155

AliveCommunicationsVLEO
NORAD 65935·PAYLOAD·🇺🇸 United States

Launched Oct 8, 2025 from Vandenberg Space Force Base

Loading…

Next Passes (next 24 hours)

TLE

FreshSource: CelesTrak SupGP

Epoch: Sep 14, 2026, 15:45 UTC

1 65935C 25225AB  26257.65673611  .00038441  00000+0  11354-2 0  2573
2 65935  53.1595   4.8961 0001397  70.3640 260.1109 15.34380014    15

Track STARLINK-35155 in real time with AllMySat

Download on the App Store